[[{"header":{"parameterUnit":"m.s-1","parameterCategory":1,"la1":30.2991,"la2":30.254,"lo1":-89.0895,"lo2":-89.0444,"dy":0.0017,"dx":0.0017,"nx":28,"ny":28,"refTime":"2024-04-24T09:00:00:Z","depth":0,"parameterNumber":2,"parameterNumberName":"U-component_of_WINDS"},"data":[0,0,0,0,0,0,0,0,0,0,0,0,0,0,0,0,0,0,0,0,0,0,0,0,0,0,0,0,0,0,0,0,0,0,0,0,0,0,0,0,0,0,0,0,0,0,0,0,0,0,0,0,0,0,0,0,0,0,-1.4934,-1.4933,0,-1.4837,-1.4836,-1.4834,-1.4771,-1.4771,-1.4771,-1.477,-1.4665,-1.4663,-1.466,0,0,0,0,0,0,0,0,0,0,0,0,0,-1.5063,-1.5061,-1.4935,-1.4933,-1.4932,-1.4837,-1.4835,-1.4834,-1.4772,-1.4771,-1.4771,-1.477,-1.4666,-1.4663,-1.466,0,0,0,0,0,0,0,0,0,0,0,0,0,-1.499,-1.506,-1.4935,-1.489,-1.4885,-1.4837,-1.4835,-1.4834,-1.4772,-1.4771,-1.477,-1.477,-1.4667,-1.4663,-1.4659,-1.4648,0,0,-1.4648,-1.4647,0,0,0,0,0,0,0,0,-1.4995,-1.4986,-1.4897,-1.4893,-1.4887,-1.4816,-1.4842,-1.4771,-1.4772,-1.4814,-1.477,-1.477,-1.4715,-1.4708,-1.469,-1.4643,-1.4638,-1.4648,-1.4646,-1.4644,-1.4643,0,0,0,0,0,0,0,-1.5,-1.499,-1.4896,-1.4896,-1.489,-1.4873,-1.4862,-1.4828,-1.4769,-1.4811,-1.4806,-1.4795,-1.4712,-1.4694,-1.4687,-1.4637,-1.4648,-1.4645,-1.4642,-1.4641,-1.4576,-1.4576,0,0,0,0,0,0,-1.5013,-1.4994,-1.4899,-1.4893,-1.4941,-1.4871,-1.4859,-1.4839,-1.4769,-1.4758,-1.4796,-1.4793,-1.47,-1.4692,-1.4683,-1.4665,-1.4644,-1.4641,-1.4638,-1.4575,-1.4576,-1.4576,0,0,0,0,0,0,-1.5016,-1.5005,-1.4903,-1.4942,-1.4928,-1.4869,-1.4848,-1.4837,-1.4819,-1.4758,-1.4747,-1.4788,-1.47,-1.4688,-1.4658,-1.4661,-1.4639,-1.4636,-1.4574,-1.4575,-1.4576,-1.4629,0,0,0,0,0,0,-1.502,-1.5006,-1.5002,-1.4943,-1.4926,-1.488,-1.4848,-1.4836,-1.4814,-1.4809,-1.4748,-1.4737,-1.4698,-1.4664,-1.4654,-1.4655,-1.4633,-1.4574,-1.4575,-1.4576,-1.4627,-1.4632,-1.4636,0,0,0,0,0,-1.5024,-1.5019,-1.5002,-1.4991,-1.492,-1.488,-1.4871,-1.4827,-1.4814,-1.4809,-1.477,-1.4739,-1.4662,-1.4661,-1.465,-1.465,-1.4573,-1.4575,-1.4576,-1.4625,-1.4631,-1.4636,0,0,0,0,0,0,-1.5078,-1.5011,-1.4991,-1.4967,-1.493,-1.487,-1.4862,-1.4835,-1.4799,-1.4796,-1.4742,-1.4729,-1.4704,-1.4673,-1.4673,-1.4635,-1.4614,-1.4613,-1.4656,-1.4661,-1.4665,-1.4673,-1.463,0,0,0,0,0,-1.5088,-1.5063,-1.5005,-1.4989,-1.4972,-1.4921,-1.4901,-1.4872,-1.4831,-1.4814,-1.4773,-1.4733,-1.47,-1.4679,-1.4644,-1.4623,-1.4609,-1.4618,-1.4622,-1.4626,-1.4625,-1.4612,-1.4615,-1.458,-1.458,-1.458,0,0,-1.5106,-1.5067,-1.5054,-1.4999,-1.4967,-1.4941,-1.4908,-1.4881,-1.4861,-1.4809,-1.4778,-1.4747,-1.4699,-1.4673,-1.4659,-1.4647,-1.4632,-1.4627,-1.4631,-1.4628,-1.4614,-1.4617,-1.462,-1.458,-1.458,-1.458,0,0,-1.5127,-1.5095,-1.5079,-1.5048,-1.5001,-1.4967,-1.4964,-1.4908,-1.4885,-1.4854,-1.4815,-1.479,-1.4733,-1.4701,-1.4677,-1.4688,-1.4659,-1.4679,-1.4701,-1.4689,-1.4692,-1.4694,-1.4698,-1.47,-1.4678,-1.4678,-1.4678,0,-1.5156,-1.5117,-1.5073,-1.505,-1.5027,-1.4982,-1.4965,-1.4936,-1.488,-1.4865,-1.4852,-1.4782,-1.4746,-1.4712,-1.4716,-1.4698,-1.4691,-1.4685,-1.4695,-1.4697,-1.4698,-1.4702,-1.4703,-1.4681,-1.4681,-1.4681,-1.468,0,-1.5154,-1.5128,-1.512,-1.507,-1.5046,-1.5026,-1.4979,-1.4959,-1.4932,-1.4899,-1.4868,-1.4824,-1.4781,-1.4771,-1.4743,-1.4733,-1.4727,-1.4706,-1.4683,-1.4705,-1.4707,-1.4708,-1.4685,-1.4684,-1.4683,-1.4683,0,0,-1.5204,-1.5132,-1.513,-1.5107,-1.5052,-1.503,-1.5008,-1.4968,-1.4953,-1.4916,-1.4896,-1.485,-1.4831,-1.4804,-1.4772,-1.4762,-1.4774,-1.4742,-1.474,-1.4749,-1.476,-1.4776,-1.4778,-1.4754,-1.4754,-1.4754,-1.4764,0,-1.5217,-1.5177,-1.5138,-1.5111,-1.5086,-1.5044,-1.5024,-1.4988,-1.4958,-1.4931,-1.4896,-1.4865,-1.4842,-1.4825,-1.4813,-1.4775,-1.4775,-1.4774,-1.4734,-1.4733,-1.4747,-1.4779,-1.4796,-1.4807,-1.4765,-1.4765,-1.4765,0,-1.5225,-1.5193,-1.5165,-1.5114,-1.5102,-1.5086,-1.5046,-1.5022,-1.498,-1.4958,-1.493,-1.4897,-1.4871,-1.4853,-1.4815,-1.4816,-1.4797,-1.4776,-1.4775,-1.4769,-1.475,-1.4774,-1.4809,-1.4811,-1.4766,-1.4766,-1.4765,0,-1.5265,-1.5214,-1.5191,-1.5172,-1.5112,-1.5102,-1.5076,-1.5035,-1.5013,-1.4978,-1.4964,-1.4926,-1.4905,-1.4876,-1.4834,-1.4824,-1.4801,-1.4779,-1.4781,-1.4782,-1.4777,-1.4778,-1.481,-1.4767,-1.4767,-1.4767,-1.4767,0,-1.5283,-1.5267,-1.5208,-1.5193,-1.5174,-1.513,-1.5112,-1.5082,-1.5046,-1.5024,-1.4984,-1.4964,-1.491,-1.4883,-1.4849,-1.4824,-1.4814,-1.4795,-1.4787,-1.4799,-1.4801,-1.4785,-1.4783,-1.4767,-1.4767,-1.4767,-1.4767,0,-1.5323,-1.5283,-1.5255,-1.5202,-1.5188,-1.5176,-1.513,-1.5114,-1.5082,-1.5055,-1.5046,-1.4995,-1.4962,-1.4917,-1.4869,-1.4847,-1.4825,-1.4811,-1.484,-1.4835,-1.4839,-1.484,-1.4862,-1.4863,-1.482,-1.482,-1.482,0,-1.5336,-1.5324,-1.527,-1.5254,-1.523,-1.5204,-1.5183,-1.5139,-1.5118,-1.5071,-1.5061,-1.5025,-1.4994,-1.4943,-1.49,-1.4864,-1.4849,-1.4859,-1.4842,-1.4856,-1.4848,-1.485,-1.4848,-1.4863,-1.4863,-1.4864,-1.4864,0,-1.5365,-1.5346,-1.5318,-1.5284,-1.5261,-1.5231,-1.5199,-1.5188,-1.5136,-1.5115,-1.5082,-1.5059,-1.5011,-1.4976,-1.4934,-1.4906,-1.4877,-1.4871,-1.4869,-1.4881,-1.4898,-1.4889,-1.485,-1.487,-1.4869,-1.4869,-1.4868,-1.4868,-1.5391,-1.5379,-1.534,-1.531,-1.5282,-1.5254,-1.5237,-1.5204,-1.5176,-1.5135,-1.5111,-1.5079,-1.5038,-1.4979,-1.4953,-1.4926,-1.4914,-1.4912,-1.4912,-1.4912,-1.4916,-1.4903,-1.4918,-1.4918,-1.4918,-1.4918,-1.4918,0,-1.5418,-1.5391,-1.5365,-1.5323,-1.53,-1.5277,-1.5241,-1.5223,-1.5196,-1.5161,-1.5132,-1.5095,-1.5061,-1.5017,-1.498,-1.4967,-1.4953,-1.4959,-1.4959,-1.4953,-1.4928,-1.4934,-1.4971,-1.4971,-1.4971,-1.4971,-1.4971,-1.4971,-1.5428,-1.5406,-1.5383,-1.5346,-1.5319,-1.5289,-1.5271,-1.5244,-1.5217,-1.5177,-1.515,-1.5122,-1.5083,-1.5044,-1.5011,-1.4999,-1.4987,-1.4997,-1.4981,-1.4959,-1.4954,-1.495,-1.4954,-1.4995,-1.4995,-1.5007,-1.5007,-1.5008]},{"header":{"parameterUnit":"m.s-1","parameterCategory":1,"la1":30.2991,"la2":30.254,"lo1":-89.0895,"lo2":-89.0444,"dy":0.0017,"dx":0.0017,"nx":28,"ny":28,"refTime":"2024-04-24T09:00:00:Z","depth":0,"parameterNumber":3,"parameterNumberName":"V-component_of_WINDS"},"data":[0,0,0,0,0,0,0,0,0,0,0,0,0,0,0,0,0,0,0,0,0,0,0,0,0,0,0,0,0,0,0,0,0,0,0,0,0,0,0,0,0,0,0,0,0,0,0,0,0,0,0,0,0,0,0,0,0,0,2.1992,2.1991,0,2.1874,2.1872,2.1871,2.1863,2.1864,2.1865,2.1867,2.1737,2.1733,2.1728,0,0,0,0,0,0,0,0,0,0,0,0,0,2.2206,2.2203,2.1993,2.1991,2.199,2.1874,2.1872,2.1871,2.1863,2.1864,2.1866,2.1867,2.1739,2.1733,2.1728,0,0,0,0,0,0,0,0,0,0,0,0,0,2.2103,2.2201,2.1993,2.1972,2.1969,2.1874,2.1872,2.187,2.1862,2.1864,2.1866,2.1868,2.1741,2.1734,2.1727,2.1643,0,0,2.1705,2.1702,0,0,0,0,0,0,0,0,2.2109,2.2095,2.1976,2.1973,2.197,2.1885,2.19,2.1794,2.1862,2.1902,2.1867,2.1869,2.1784,2.1774,2.1747,2.1637,2.1631,2.1705,2.17,2.1697,2.1695,0,0,0,0,0,0,0,2.2116,2.21,2.1945,2.1975,2.197,2.1966,2.1954,2.188,2.1833,2.1899,2.1898,2.1885,2.1783,2.1754,2.1744,2.1629,2.1705,2.1698,2.1694,2.1691,2.1445,2.1443,0,0,0,0,0,0,2.2128,2.2106,2.1949,2.1942,2.2046,2.1961,2.1947,2.191,2.1834,2.1825,2.1883,2.1885,2.1765,2.1752,2.1739,2.1636,2.1697,2.1691,2.1687,2.1447,2.1444,2.1442,0,0,0,0,0,0,2.2133,2.2114,2.1954,2.2024,2.2003,2.1955,2.1914,2.1907,2.1878,2.1822,2.1813,2.1862,2.1766,2.1749,2.1667,2.1631,2.1687,2.1681,2.145,2.1446,2.1443,2.1428,0,0,0,0,0,0,2.2139,2.2116,2.2085,2.2023,2.1999,2.1886,2.1912,2.1903,2.1866,2.1867,2.18,2.1791,2.1766,2.1678,2.166,2.1622,2.1676,2.1453,2.1448,2.1444,2.1432,2.1425,2.1419,0,0,0,0,0,2.2147,2.2083,2.2083,2.2064,2.196,2.1884,2.187,2.1845,2.1864,2.1831,2.1796,2.1793,2.1639,2.167,2.165,2.1609,2.1455,2.1449,2.1444,2.1435,2.1426,2.1419,0,0,0,0,0,0,2.2138,2.2075,2.2074,2.1989,2.1943,2.1883,2.184,2.1837,2.1781,2.1784,2.1753,2.1738,2.1658,2.1625,2.1661,2.1524,2.1548,2.1539,2.1548,2.1539,2.1533,2.1541,2.167,0,0,0,0,0,2.2127,2.2073,2.202,2.195,2.1927,2.1888,2.1854,2.1839,2.1788,2.1768,2.1726,2.1675,2.1615,2.1576,2.1517,2.1428,2.1413,2.139,2.1384,2.1379,2.137,2.1321,2.131,2.1425,2.1425,2.1425,0,0,2.2102,2.2061,2.2028,2.1947,2.1909,2.1852,2.1871,2.1809,2.1766,2.1757,2.1678,2.1647,2.1587,2.1502,2.1462,2.1472,2.1336,2.1372,2.1369,2.1362,2.1314,2.1303,2.1294,2.1421,2.1422,2.1422,0,0,2.2028,2.1992,2.193,2.1893,2.1836,2.1811,2.1797,2.1738,2.1717,2.1639,2.1631,2.1579,2.1476,2.1434,2.14,2.1313,2.1308,2.1295,2.1259,2.1212,2.1203,2.1194,2.1162,2.1151,2.1287,2.1287,2.1287,0,2.2003,2.1919,2.1898,2.1837,2.1802,2.1795,2.1732,2.1696,2.1622,2.1596,2.161,2.1483,2.1442,2.1347,2.1326,2.1299,2.128,2.1301,2.1206,2.1198,2.119,2.1159,2.1147,2.1285,2.1286,2.1286,2.1286,0,2.1891,2.1833,2.1789,2.1722,2.1682,2.162,2.1588,2.155,2.154,2.1513,2.1432,2.1385,2.1317,2.1294,2.1281,2.1197,2.1205,2.1213,2.1236,2.1178,2.1148,2.1136,2.1283,2.1284,2.1284,2.1285,0,0,2.1804,2.1729,2.1713,2.1683,2.1622,2.1575,2.1513,2.145,2.1417,2.1367,2.1313,2.1228,2.1236,2.1197,2.1181,2.1139,2.1073,2.1152,2.115,2.1138,2.0975,2.0969,2.0955,2.1071,2.1068,2.1066,2.098,0,2.1721,2.1613,2.1594,2.1499,2.1444,2.1439,2.1385,2.1341,2.1315,2.1263,2.1233,2.1174,2.1189,2.1165,2.1124,2.109,2.1039,2.1096,2.1018,2.1015,2.1031,2.094,2.0932,2.0853,2.0969,2.0967,2.0965,0,2.161,2.1561,2.1461,2.1409,2.1385,2.1337,2.1278,2.123,2.118,2.1164,2.1122,2.1111,2.1045,2.1074,2.0982,2.102,2.0988,2.0966,2.0963,2.0952,2.0985,2.0926,2.0827,2.0815,2.0947,2.0948,2.095,0,2.1555,2.1464,2.1393,2.1367,2.1305,2.1271,2.1243,2.1195,2.1159,2.1107,2.1083,2.1024,2.099,2.0944,2.0917,2.0941,2.0826,2.0853,2.0809,2.081,2.0783,2.0784,2.0676,2.0765,2.0765,2.0766,2.0766,0,2.1464,2.1402,2.1368,2.1324,2.1255,2.1234,2.1165,2.1137,2.1096,2.1045,2.1036,2.0988,2.0956,2.0903,2.0882,2.0808,2.0793,2.0777,2.0771,2.0777,2.0779,2.0753,2.0757,2.0762,2.0763,2.0764,2.0764,0,2.139,2.1365,2.1286,2.1235,2.1221,2.1173,2.1128,2.1084,2.106,2.0995,2.0979,2.094,2.0877,2.0847,2.0768,2.0754,2.067,2.0669,2.0688,2.0685,2.0643,2.0647,2.0512,2.0493,2.0597,2.0596,2.0595,0,2.1332,2.1286,2.1231,2.1198,2.117,2.1116,2.1081,2.1058,2.1021,2.0962,2.0925,2.0863,2.0812,2.0712,2.0675,2.0615,2.0611,2.0568,2.0602,2.0609,2.0609,2.0611,2.0606,2.0561,2.056,2.056,2.0559,0,2.1232,2.1223,2.1173,2.1119,2.1078,2.1033,2.0989,2.0962,2.0933,2.0891,2.0829,2.079,2.0712,2.065,2.0588,2.0557,2.0552,2.055,2.0536,2.0539,2.0552,2.0544,2.067,2.0552,2.0552,2.0553,2.0553,2.0554,2.1163,2.1122,2.1078,2.1023,2.0989,2.0949,2.0906,2.0878,2.0827,2.0763,2.0753,2.0687,2.0638,2.0555,2.0523,2.0469,2.0478,2.0459,2.0454,2.0449,2.0446,2.0563,2.0458,2.0458,2.0458,2.0458,2.0459,0,2.1062,2.1035,2.0985,2.0926,2.0882,2.0886,2.0839,2.0801,2.0744,2.0701,2.0652,2.0581,2.0522,2.0482,2.0421,2.0386,2.0382,2.0371,2.0372,2.0365,2.0442,2.0459,2.0375,2.0375,2.0375,2.0375,2.0375,2.0375,2.1004,2.0935,2.0921,2.0834,2.0806,2.0743,2.0716,2.0679,2.0644,2.0566,2.0518,2.0494,2.0452,2.0389,2.0334,2.0324,2.0301,2.0289,2.0278,2.035,2.0359,2.0367,2.0383,2.0284,2.0284,2.0205,2.0204,2.0204]}]]